Ostrava, Czech Republic

9:58 PM CEST on May 24, 2017 (GMT +0200)
Mosnov

Weather History for LKMT - May, 2013

Change the Weather History Date:

Tuesday, May 14, 2013

  Actual Average Record
Temperature  
Mean Temperature 54 °F -  
Max Temperature 67 °F 68 °F - ()
Min Temperature 41 °F 48 °F - ()
Degree Days  
Heating Degree Days 11    
Growing Degree Days 4 (Base 50)    
Moisture  
Dew Point 43 °F    
Average Humidity 67    
Maximum Humidity 100    
Minimum Humidity 30    
Precipitation  
Precipitation 0.00 in 0.13 in - ()
Sea Level Pressure  
Sea Level Pressure 29.93 in    
Wind  
Wind Speed 4 mph ()    
Max Wind Speed 9 mph    
Max Gust Speed -    
Visibility 8.1 miles    
Events      
T = Trace of Precipitation, MM = Missing Value Source: Averaged Metar Reports

Daily Weather History Graph

Daily Weather History Graph

Search for Another Location

Airport or City:

Trip Planner

Search our weather history database for the weather conditions in past years. The results will help you decide how hot, cold, wet, or windy it might be!

Date:

Astronomy

May. 14, 2013 Rise Set
Actual Time 5:04 AM CEST 8:24 PM CEST
Civil Twilight 4:25 AM CEST 9:03 PM CEST
Nautical Twilight 3:34 AM CEST 9:55 PM CEST
Astronomical Twilight 2:26 AM CEST 11:03 PM CEST
Moon 8:27 AM CEST (5/14) 11:58 PM CEST (5/14)
Length of Visible Light 16h 37m
Length of Day
15h 20m
Waxing Crescent, 17% of the Moon is Illuminated
May 14
Waxing Crescent
May 18
First Quarter
May 25
Full
May 31
Last Quarter
Jun 8
New

Hourly Weather History & Observations

Time (CEST) Temp. Windchill Dew Point Humidity Pressure Visibility Wind Dir Wind Speed Gust Speed Precip Events Conditions
12:00 AM 46.4 °F 45.2 °F 44.6 °F 93% 29.95 in - SSW 3.5 mph - N/A   Clear
12:30 AM 46.4 °F 43.5 °F 44.6 °F 93% 29.95 in - SW 5.8 mph - N/A   Clear
1:00 AM 46.4 °F 44.3 °F 44.6 °F 93% 29.95 in - SW 4.6 mph - N/A   Clear
1:30 AM 48.2 °F - 44.6 °F 87% 29.95 in - South 3.5 mph - N/A   Clear
2:00 AM 47 °F - 43 °F 79% 29.97 in 12 mi SSW 6.7 mph - -   Overcast
2:00 AM 46.4 °F 43.5 °F 42.8 °F 87% 29.95 in - SSW 5.8 mph - N/A   Clear
2:30 AM 46.4 °F 44.3 °F 42.8 °F 87% 29.95 in - South 4.6 mph - N/A   Clear
3:00 AM 46.4 °F 44.3 °F 42.8 °F 87% 29.95 in - West 4.6 mph - N/A   Clear
3:30 AM 44.6 °F 43.1 °F 42.8 °F 93% 29.95 in - WSW 3.5 mph - N/A   Clear
4:00 AM 46.4 °F 44.3 °F 42.8 °F 87% 29.95 in - WSW 4.6 mph - N/A   Clear
4:30 AM 44.6 °F 42.2 °F 42.8 °F 93% 29.95 in - WSW 4.6 mph - N/A   Clear
5:00 AM 42.8 °F 38.6 °F 41.0 °F 93% 29.95 in - WSW 6.9 mph - N/A   Clear
5:30 AM 42.8 °F 39.3 °F 41.0 °F 93% 29.95 in - SW 5.8 mph - N/A   Clear
6:00 AM 42.8 °F 39.3 °F 41.0 °F 93% 29.95 in - SW 5.8 mph - N/A   Clear
6:30 AM 42.8 °F 40.1 °F 42.8 °F 100% 29.95 in - WSW 4.6 mph - N/A   Clear
7:00 AM 44.6 °F 40.7 °F 42.8 °F 93% 29.95 in - WSW 6.9 mph - N/A   Clear
7:30 AM 48.2 °F - 44.6 °F 87% 29.98 in - SW 8.1 mph - N/A   Clear
8:00 AM 49 °F - 44 °F 78% 29.99 in 16 mi SW 8.9 mph - -   Clear
8:00 AM 50.0 °F - 44.6 °F 82% 29.98 in - SW 6.9 mph - N/A   Clear
8:30 AM 50.0 °F - 44.6 °F 82% 29.98 in - SW 6.9 mph - N/A   Clear
9:00 AM 53.6 °F - 42.8 °F 67% 29.98 in - SW 4.6 mph - N/A   Clear
9:30 AM 57.2 °F - 44.6 °F 63% 29.98 in - SW 3.5 mph - N/A   Clear
10:00 AM 57.2 °F - 42.8 °F 59% 29.95 in 6.2 mi Variable 3.5 mph - N/A   Partly Cloudy
10:30 AM 59.0 °F - 44.6 °F 59% 29.95 in 6.2 mi Variable 3.5 mph - N/A   Partly Cloudy
11:00 AM 60.8 °F - 42.8 °F 52% 29.95 in 6.2 mi Variable 3.5 mph - N/A   Partly Cloudy
11:30 AM 60.8 °F - 42.8 °F 52% 29.95 in 6.2 mi Variable 2.3 mph - N/A   Partly Cloudy
12:00 PM 60.8 °F - 41.0 °F 48% 29.95 in 6.2 mi Variable 3.5 mph - N/A   Partly Cloudy
12:30 PM 62.6 °F - 41.0 °F 45% 29.95 in 6.2 mi SW 4.6 mph - N/A   Partly Cloudy
1:00 PM 62.6 °F - 41.0 °F 45% 29.95 in - Variable 2.3 mph - N/A   Clear
1:30 PM 62.6 °F - 41.0 °F 45% 29.95 in - East 4.6 mph - N/A   Clear
2:00 PM 64 °F - 40 °F 30% 29.94 in 28 mi 4.5 mph - -   Scattered Clouds
2:00 PM 64.4 °F - 41.0 °F 42% 29.95 in - Variable 2.3 mph - N/A   Clear
2:30 PM 64.4 °F - 42.8 °F 45% 29.92 in - Variable 2.3 mph - N/A   Clear
3:00 PM 64.4 °F - 41.0 °F 42% 29.92 in - NNE 4.6 mph - N/A   Clear
3:30 PM 66.2 °F - 42.8 °F 43% 29.92 in - Variable 3.5 mph - N/A   Clear
4:00 PM 66.2 °F - 39.2 °F 37% 29.92 in - Variable 2.3 mph - N/A   Clear
4:30 PM 66.2 °F - 41.0 °F 40% 29.92 in - Variable 2.3 mph - N/A   Clear
5:00 PM 66.2 °F - 41.0 °F 40% 29.89 in - Variable 3.5 mph - N/A   Clear
5:30 PM 66.2 °F - 41.0 °F 40% 29.89 in - North 3.5 mph - N/A   Clear
6:00 PM 66.2 °F - 42.8 °F 43% 29.89 in - Variable 2.3 mph - N/A   Clear
6:30 PM 64.4 °F - 41.0 °F 42% 29.89 in - NE 3.5 mph - N/A   Clear
7:00 PM 62.6 °F - 44.6 °F 52% 29.89 in - NNW 5.8 mph - N/A   Clear
7:30 PM 60.8 °F - 44.6 °F 55% 29.89 in - NNW 4.6 mph - N/A   Clear
8:00 PM 59 °F - 45 °F 50% 29.90 in 25 mi NW 4.5 mph - -   Scattered Clouds
8:00 PM 59.0 °F - 46.4 °F 63% 29.89 in - NNW 3.5 mph - N/A   Clear
8:30 PM 57.2 °F - 44.6 °F 63% 29.89 in - NNW 3.5 mph - N/A   Clear
9:00 PM 59.0 °F - 42.8 °F 55% 29.89 in - Variable 2.3 mph - N/A   Clear
9:30 PM 55.4 °F - 44.6 °F 67% 29.89 in - Variable 1.2 mph - N/A   Clear
10:00 PM 53.6 °F - 44.6 °F 72% 29.89 in - Calm Calm - N/A   Clear
10:30 PM 51.8 °F - 46.4 °F 82% 29.89 in - Variable 2.3 mph - N/A   Clear
11:00 PM 53.6 °F - 46.4 °F 77% 29.89 in - SSW 2.3 mph - N/A   Clear
11:30 PM 51.8 °F - 46.4 °F 82% 29.89 in - SW 3.5 mph - N/A   Clear